Flag for Canada Weather past 2 weeks in Coral Harbour, Nunavut, Canada

Now
12 °F

Light snow. Low clouds.


Feels Like: -2 °F
Forecast: 1 / 14 °F
Wind: 12 mph from North

Location: Coral Harbour

Current Time: Apr 18, 2015 at 3:24:47 AM

Latest Report: Apr 18, 2015 at 2:00 AM


Visibility: 15 mi

Pressure: 29.80 "Hg

Humidity: 79%

Dew point: 7 °F

Location of Coral HarbourLocation

Historic Weather in Coral Harbour — Graph

°F

Coral Harbour temperature yesterday

Maximum temperature yesterday: 19 °F (at 12:00 PM)
Minimum temperature yesterday: 10 °F (at 2:00 AM)
Average temperature yesterday: 15 °F

Past Weeks' High & Low Weather Summary

 TemperatureHumidityPressure
High19 °F (Apr 17, 12:00 PM)93% (Apr 17, 2:00 PM)30.22 "Hg (Apr 17, 2:00 PM)
Low-22 °F (Apr 8, 2:00 AM)55% (Apr 13, 11:00 AM)29.12 "Hg (Apr 12, 11:00 PM)
Average-2 °F72%29.76 "Hg
* Reported Apr 3 1:00 AM — Apr 18 1:00 AM, Coral Harbour, Weather by CustomWeather, © 2015

Note: Actual official high and low records may vary slightly from our data, if they occured in-between our weather recording intervals... More about our weather records

Advertising

Coral Harbour weather history for previous 24 hours

 ConditionsComfort  
Time TempWeatherWind HumidityBarometerVisibility
1:00 AM
Sat, Apr 18
14 °FLight snow. Low clouds.No wind79%29.79 "Hg15 mi
12:00 AM14 °FLight snow. Low clouds.12 mph79%29.77 "Hg15 mi
11:00 PM
Fri, Apr 17
14 °FLight snow. Low clouds.12 mph85%29.75 "Hg15 mi
10:00 PM16 °FLight snow. Low clouds.9 mph79%29.75 "Hg15 mi
8:00 PM18 °FLight snow. Low clouds.9 mph79%29.73 "Hg15 mi
7:00 PM18 °FLight snow. Mostly cloudy.9 mph86%29.72 "Hg15 mi
6:00 PM18 °FLight snow. Low clouds.8 mph93%29.71 "Hg6 mi
5:00 PM19 °FLight snow. Low clouds.8 mph86%29.70 "Hg6 mi
4:00 PM19 °FLight snow. Low clouds.6 mph86%29.70 "Hg6 mi
3:00 PM19 °FLight snow. Low clouds.6 mph93%29.70 "Hg6 mi
2:00 PM19 °FLight snow. Overcast.6 mph93%29.70 "Hg8 mi
1:00 PM19 °FLight snow. Overcast.6 mph86%29.70 "Hg12 mi
12:00 PM19 °FLight snow. Overcast.6 mph86%29.70 "Hg12 mi
11:00 AM18 °FLight snow. Overcast.8 mph86%29.71 "Hg2 mi
10:00 AM18 °FLight snow. Mostly cloudy.8 mph79%29.72 "Hg1 mi
9:00 AM16 °FLight snow. Mostly cloudy.8 mph86%29.73 "Hg6 mi
8:00 AM14 °FLight snow. More clouds than sun.10 mph79%29.74 "Hg12 mi
7:00 AM12 °FLight snow. Overcast.9 mph85%29.75 "Hg8 mi
6:00 AM12 °FLight snow. Overcast.8 mph79%29.76 "Hg8 mi
5:00 AM12 °FLight snow. Low clouds.3 mph85%29.77 "Hg5 mi
4:00 AM10 °FLight snow. Low clouds.5 mph85%29.78 "Hg3 mi
3:00 AM10 °FLight snow. Low clouds.6 mph85%29.80 "Hg4 mi
Weather by CustomWeather, © 2015

See weather overviewHow to use our weather pages